User: anonymous   Login
Location: Unspecified
(0.0000°N, 0.0000°E)
Time: 07:21:15
(UTC+00:00)
Language:

Metsat - Orbit

View from above orbital plane
View from above orbital plane
View from above satellite
View from above satellite

Ground track
Ground track

The orbit is defined by the following mean orbital elements,

1 26382U          26106.94148111 +.00000000 +00000-0 +00000-0 0 00008
2 26382  13.2128  17.3583 0003135 308.4215 227.8106  1.00099120    00
Epoch (UTC): 16 April 2026 22:35:43
Eccentricity: 0.0003135
inclination: 13.2128°
perigee height: 35822 km
apogee height: 35848 km
right ascension of ascending node: 17.3583°
argument of perigee: 308.4215°
revolutions per day: 1.00099120
mean anomaly at epoch: 227.8106°

The dashed part of the orbit path shows where the satellite is in the earth's shadow,  

DLR